Dewpoint
42 41 41 40 39 38 35 32 30 30 30 30 29 28 27 23 19 18 18 18 24 51 52 53 55 55 46 46 45 45 46 46 43 39 38 37 35 36 36 36 37 37 37 36
41 39 41 42 40 38 36 34 32 32 32 31 29 28 28 26 25 22 19 18 28 43 51 53 53 50 45 44 43 44 45 43 42 39 38 35 35 35 35 37 36 36 36 36
39 39 40 39 38 37 36 35 34 34 33 32 30 27 28 28 28 28 23 19 20 35 49 51 52 46 44 43 42 43 44 42 40 39 37 36 35 36 35 34 34 35 35 35
38 38 37 36 35 35 34 35 35 34 33 32 34 30 32 33 34 34 31 29 23 28 48 50 50 44 42 42 41 43 42 40 39 38 37 33 32 32 34 34 34 34 33 33
35 34 34 33 33 34 31 31 30 33 36 38 35 35 34 35 34 33 32 32 32 31 41 50 48 43 42 41 40 42 42 40 39 37 34 32 31 32 35 33 33 33 30 30
34 35 34 33 34 34 33 31 35 36 37 33 34 34 32 31 32 33 33 33 32 32 32 49 48 43 40 40 40 41 41 39 39 36 34 32 33 33 32 34 33 32 30 29
33 33 34 34 32 33 32 31 33 31 32 29 31 34 33 31 35 35 33 32 32 32 30 45 45 40 39 39 39 40 40 38 38 36 34 35 31 31 30 31 33 33 30 28
29 29 31 32 32 31 31 30 31 24 23 24 28 26 27 31 33 34 33 33 33 31 32 44 43 39 39 39 39 39 38 38 36 37 36 34 30 30 31 32 31 31 29 27
31 28 31 30 32 32 31 30 32 32 31 29 27 27 29 30 35 36 30 27 31 35 35 43 42 39 39 39 39 39 38 37 37 37 34 32 32 31 31 30 31 29 28 27
38 31 36 34 34 35 32 33 30 31 27 26 30 28 25 36 38 38 34 31 31 39 41 41 40 39 39 39 39 38 37 37 36 34 31 31 31 30 30 29 27 28 28 27
37 36 33 34 33 31 30 33 36 37 35 28 26 26 39 38 40 40 40 34 33 37 41 40 40 40 39 39 38 37 36 36 35 32 31 30 29 30 31 30 28 29 28 29
36 33 30 32 33 37 38 38 37 31 31 32 32 32 41 39 39 40 40 42 41 38 41 40 41 40 40 39 38 37 36 35 33 32 31 31 30 30 31 31 30 29 28 27
34 31 24 26 30 33 34 34 35 34 32 31 28 30 41 40 38 38 40 40 41 39 41 42 41 40 40 39 39 37 36 34 33 32 31 30 30 30 31 31 31 29 28 27
36 31 28 23 26 30 28 27 28 32 28 29 31 31 33 33 37 36 37 41 40 40 40 41 40 40 40 39 37 36 35 34 33 32 31 30 31 31 32 32 31 29 28 27
34 27 25 25 24 25 25 22 24 24 28 29 25 26 29 30 34 37 40 41 41 39 39 40 40 40 40 38 37 35 34 33 33 31 31 32 33 33 34 33 30 28 28 28
31 26 28 21 23 21 21 21 21 20 22 25 32 32 34 33 32 36 39 39 37 35 35 39 40 40 39 38 36 35 33 33 33 32 32 33 33 34 33 31 30 29 28 28
26 26 25 19 19 19 17 16 18 17 17 25 24 28 31 32 30 29 37 39 38 36 33 39 40 40 39 38 36 33 32 33 33 32 33 33 33 32 31 30 30 29 27 28
21 24 24 20 20 13 11 18 18 19 21 28 27 30 35 32 30 32 35 35 34 35 34 37 40 40 39 38 35 34 33 33 33 32 32 31 31 31 30 29 29 27 27 26
21 21 21 19 16 15 13 14 14 13 13 20 20 25 35 37 33 34 37 37 32 32 35 36 40 39 38 37 35 33 32 32 32 31 30 30 30 29 29 28 27 27 26 25
19 21 22 22 18 10 13 15 26 25 16 29 26 28 29 35 27 32 39 39 40 38 37 38 39 38 38 36 34 33 31 31 30 30 29 28 28 28 27 27 26 26 26 24
17 26 22 22 20 20 22 27 20 15 23 32 31 32 35 33 36 40 39 38 40 40 38 38 39 38 37 37 34 32 31 30 29 28 27 26 27 27 27 27 26 26 27 25
14 16 20 22 20 18 30 31 28 32 34 35 35 35 32 35 35 36 37 38 37 37 39 37 37 38 37 36 34 32 31 31 29 27 26 25 26 27 28 27 26 26 25 23
17 23 24 22 24 28 32 30 31 37 35 37 36 34 34 33 33 35 37 38 37 37 37 37 36 36 36 36 34 33 32 30 28 27 26 26 27 27 28 26 26 25 24 23
20 21 27 27 26 21 26 31 31 35 37 38 36 35 35 34 33 32 37 36 36 36 36 36 35 35 34 34 33 32 31 31 30 28 27 27 26 27 27 26 26 25 24 24
18 18 17 16 19 22 25 31 31 33 37 38 36 36 35 35 35 37 37 36 35 35 35 35 34 33 32 32 32 32 31 30 30 28 28 27 26 25 26 26 26 26 26 25
19 17 15 13 18 25 25 31 30 35 36 36 36 36 37 37 35 35 36 35 33 33 34 34 33 32 31 31 31 32 32 31 28 27 25 23 24 25 26 26 26 28 27 27
Wind_Speed
15 21 27 24 25 29 28 27 32 29 26 25 33 32 28 20 15 17 20 17 19 35 34 37 37 32 35 33 29 30 27 24 21 21 21 18 19 18 16 14 14 11 9 11
20 37 27 24 27 31 31 33 36 32 25 23 30 39 34 23 22 18 20 18 20 26 33 36 35 32 38 40 34 29 27 23 20 18 15 13 17 11 15 14 13 11 11 11
28 32 22 27 30 32 30 34 29 29 23 27 29 40 30 24 19 20 20 23 23 28 34 35 35 38 37 39 39 36 31 27 19 17 16 14 14 15 10 14 13 11 12 12
29 23 26 26 36 23 31 26 29 31 26 32 4 31 44 24 28 28 20 19 28 26 33 39 36 35 40 38 36 36 36 33 25 22 19 25 18 21 13 15 13 14 13 12
48 23 23 30 32 23 35 22 29 30 14 12 35 9 48 9 25 21 23 26 24 27 36 38 44 41 39 39 37 34 34 33 29 24 24 23 19 13 17 18 19 16 13 12
43 21 23 38 31 29 27 29 17 17 8 14 48 11 27 35 27 21 24 29 29 22 30 40 41 37 34 33 33 33 34 30 23 28 26 23 22 21 22 20 19 16 13 12
35 47 38 35 30 34 31 22 10 11 17 25 28 11 31 41 15 25 24 29 27 28 27 35 38 37 38 39 37 34 35 30 24 26 25 21 23 23 22 22 18 18 14 12
28 28 39 24 41 32 17 28 20 24 19 26 20 18 33 17 29 39 43 29 25 28 27 39 44 41 40 39 37 36 35 31 27 24 20 21 22 19 18 18 19 16 16 15
17 37 30 18 29 31 45 33 34 26 34 24 25 27 22 21 16 28 4 16 16 5 25 38 34 34 35 36 35 36 33 30 27 26 24 22 21 20 19 19 18 17 16 15
4 9 25 26 23 21 21 14 21 27 26 25 14 21 13 10 17 21 25 20 23 14 19 27 29 28 24 26 26 29 27 29 27 26 28 21 20 18 18 19 20 17 16 16
10 7 9 8 6 17 16 17 6 12 12 15 13 6 4 12 10 15 17 24 26 14 14 20 20 27 28 28 26 25 27 27 27 27 24 25 21 19 17 18 18 18 18 16
2 5 7 5 19 8 1 1 4 5 8 4 6 6 0 10 11 11 15 18 21 15 12 15 20 20 25 27 28 26 26 27 26 25 25 25 22 20 19 19 18 18 17 17
9 6 7 11 3 13 6 6 9 6 5 7 12 4 1 5 6 2 2 3 7 10 15 17 13 20 26 26 23 26 26 27 24 25 28 25 23 21 20 19 17 17 18 18
8 7 6 9 9 6 8 14 13 5 6 9 8 8 12 15 7 12 11 13 10 5 17 21 18 20 24 26 28 27 25 25 26 28 27 26 22 19 18 18 17 16 18 18
6 10 13 19 22 15 15 22 12 12 13 14 26 19 18 6 7 15 21 16 13 14 22 24 25 20 19 20 22 25 26 25 26 27 27 24 18 17 17 18 16 16 17 17
8 9 7 11 17 16 22 18 18 18 18 23 24 26 24 19 21 19 22 18 13 16 20 25 28 29 29 29 26 25 26 26 27 24 22 24 21 18 18 18 17 16 16 17
4 8 11 12 8 13 12 23 17 16 19 13 17 25 27 23 25 22 20 18 18 16 21 26 28 30 28 28 26 30 29 28 26 23 21 22 23 20 18 18 18 18 18 17
16 18 18 22 16 16 12 13 17 15 17 16 17 18 23 20 33 15 13 21 18 14 17 23 24 22 24 25 26 24 23 24 25 25 23 23 22 21 18 19 19 17 17 20
30 24 12 11 14 17 18 13 6 17 22 17 16 13 11 25 7 2 8 6 16 14 15 22 26 26 25 27 25 26 26 25 26 26 26 25 24 21 19 21 21 18 19 18
28 29 23 11 6 10 3 11 9 15 17 21 5 6 15 20 4 3 7 12 6 5 9 23 25 26 27 27 30 29 27 25 24 23 23 25 23 21 20 20 20 17 17 17
8 6 23 21 16 11 10 19 18 14 6 23 19 11 7 10 9 1 4 4 4 3 4 18 29 31 30 30 28 25 25 25 22 23 21 21 20 20 19 17 17 17 17 18
11 7 5 5 6 10 23 24 11 13 23 17 11 6 10 8 14 14 8 4 2 3 1 10 22 25 28 29 29 28 29 23 28 25 24 23 21 18 18 20 18 19 19 19
8 6 7 5 6 9 9 16 8 12 16 13 19 13 2 6 9 11 10 3 5 6 5 4 18 21 20 23 24 26 22 28 27 28 26 24 22 21 19 20 20 18 18 18
7 13 5 15 10 22 17 15 21 22 20 19 15 12 16 15 13 13 11 7 9 8 10 12 13 20 20 20 23 22 21 25 23 26 26 23 21 21 21 18 18 18 18 18
13 14 10 14 16 23 9 20 20 24 24 22 9 8 12 14 17 13 16 15 13 12 12 14 13 15 19 21 22 23 25 27 22 19 19 21 20 22 21 17 17 16 15 17
9 16 17 21 18 16 23 21 30 18 17 29 23 7 11 16 18 15 11 16 17 15 16 15 14 14 15 20 23 23 23 25 26 22 20 21 20 19 18 18 12 13 16 16
Wind_Direction
237 231 225 217 219 234 245 258 268 272 279 288 285 287 282 280 234 242 237 223 213 188 183 175 177 171 150 156 159 159 155 160 150 149 154 146 145 134 132 134 131 126 112 101
246 251 232 228 234 238 237 246 256 267 262 254 276 282 278 269 270 257 231 231 208 178 169 175 176 166 160 158 159 157 156 159 153 156 160 155 141 135 135 132 128 126 112 112
232 244 229 240 248 252 261 259 269 272 278 271 270 275 281 270 269 256 241 230 221 191 176 176 177 169 161 162 161 159 157 158 160 159 155 142 126 125 132 138 134 130 117 108
250 261 249 253 255 249 255 256 265 269 278 274 345 276 279 273 276 276 275 239 224 197 183 179 176 169 167 167 161 159 158 160 165 174 169 163 161 161 163 152 142 128 118 111
241 236 239 250 249 251 258 280 269 270 248 338 279 235 273 257 265 261 259 256 251 218 185 185 178 173 170 162 162 158 159 163 169 173 161 160 162 167 146 143 136 130 124 116
254 255 247 250 262 265 269 278 281 292 252 239 259 212 271 270 255 252 249 253 259 252 202 185 177 166 163 159 158 156 159 168 170 157 160 165 162 152 146 148 144 142 132 124
245 254 253 252 262 264 262 266 259 238 223 245 262 214 235 266 264 247 260 263 261 263 202 177 169 166 159 162 162 158 159 166 161 158 162 160 153 154 153 152 152 149 140 129
233 257 242 225 221 239 242 240 237 253 246 254 254 239 252 262 259 255 266 276 263 256 185 171 172 169 164 163 160 157 159 158 158 156 155 151 150 152 154 152 150 144 139 127
266 249 263 253 225 221 244 238 245 257 261 269 255 263 292 310 4 2 337 56 28 43 172 165 166 163 157 160 161 158 158 156 155 145 141 143 145 147 150 138 124 125 126 119
261 267 273 278 291 284 265 255 245 235 246 247 248 253 236 29 13 18 20 33 28 62 123 145 152 153 147 148 149 153 151 151 141 135 135 133 133 131 131 123 126 126 122 123
359 276 278 343 233 274 253 268 280 251 213 225 238 205 80 72 37 23 16 23 31 41 119 141 146 149 148 151 150 146 143 141 136 136 130 130 132 128 121 121 121 118 120 123
41 283 294 241 294 293 251 192 301 260 251 202 213 195 36 42 40 25 29 12 6 44 84 116 129 138 135 139 146 140 142 140 140 134 125 127 130 129 126 129 128 129 134 125
15 309 337 315 201 24 40 359 342 312 249 238 252 214 50 293 277 297 36 103 359 30 98 108 121 136 139 145 142 141 141 139 137 129 129 134 137 140 139 138 138 134 132 121
277 222 244 246 304 312 305 317 319 14 291 353 250 267 270 265 240 282 292 280 229 196 135 142 144 146 151 151 142 140 142 141 138 137 139 142 146 146 146 143 135 147 130 130
333 259 239 240 265 273 283 299 310 303 272 277 282 280 287 272 211 239 235 242 233 209 152 155 149 152 158 148 144 144 142 140 143 144 150 146 140 139 148 142 149 148 136 140
355 318 321 294 260 265 253 258 277 273 277 265 262 271 262 275 267 223 209 214 236 202 177 167 162 161 165 163 158 152 148 145 142 141 145 138 141 150 154 153 159 145 144 152
288 290 317 281 301 299 258 246 237 252 254 256 284 280 275 271 256 252 215 210 228 236 190 170 170 170 167 166 158 159 155 148 147 149 149 145 146 160 157 160 149 141 142 129
234 238 262 282 294 263 265 252 244 255 268 234 248 272 300 275 253 213 210 211 223 227 188 174 173 165 168 155 153 151 151 150 151 152 153 149 154 161 162 150 139 139 136 133
220 229 241 245 261 286 289 281 273 279 279 249 263 283 286 300 305 48 38 354 216 196 180 178 171 162 157 155 154 151 155 156 158 162 159 161 161 166 157 152 146 146 140 140
221 222 222 225 228 261 52 345 35 358 266 15 289 59 3 239 220 227 33 20 77 103 151 154 150 148 153 160 160 159 162 163 169 164 161 154 159 162 157 148 150 148 146 148
304 275 222 235 241 277 358 345 297 239 320 346 349 16 61 38 316 46 98 64 65 51 112 148 154 164 169 162 156 158 163 169 156 149 149 151 155 152 147 144 149 148 150 150
282 293 231 246 230 268 358 348 340 325 323 337 327 338 28 5 351 340 318 118 79 36 56 160 155 161 157 157 156 164 168 160 149 149 149 155 156 158 155 152 156 159 156 150
280 353 308 288 269 314 321 296 299 273 301 332 313 279 276 1 333 318 308 224 146 114 93 114 148 139 151 159 157 159 154 145 148 150 158 157 152 150 152 163 163 165 162 160
297 304 317 327 338 316 315 331 345 341 332 261 265 16 6 333 284 289 285 197 153 136 125 128 139 145 144 145 148 142 145 142 153 150 147 148 152 159 169 167 171 172 173 167
284 309 296 308 294 308 323 329 330 332 321 320 305 17 4 354 351 245 210 170 153 136 127 132 142 147 139 135 134 140 144 141 146 145 150 153 158 167 164 168 175 179 178 176
259 264 275 280 296 316 320 321 311 310 313 287 294 349 5 12 346 326 213 145 135 134 132 131 132 137 132 133 137 141 145 147 143 145 155 159 158 162 160 158 148 164 155 165